Change the Weather History Date:

Wednesday, December 18, 2013

  Actual Average (KDEN) Record (KDEN)
Temperature  
Mean Temperature 58 °F 29 °F  
Max Temperature 69 °F 42 °F 68 °F (2013)
Min Temperature 46 °F 17 °F -12 °F (1909)
Degree Days  
Heating Degree Days 8 36  
Month to date heating degree days 627  
Since 1 July heating degree days 2009  
Cooling Degree Days 0 0  
Month to date cooling degree days 0  
Year to date cooling degree days 769  
Growing Degree Days 8 (Base 50)    
Moisture  
Dew Point 14 °F    
Average Humidity 20    
Maximum Humidity 28    
Minimum Humidity 12    
Precipitation  
Precipitation 0.00 in 0.01 in 0.60 in (1973)
Month to date precipitation 0.21  
Year to date precipitation 14.16  
Snow  
Snow 0.00 in - - ()
Month to date snowfall  
Since 1 July snowfall  
Snow Depth -    
Sea Level Pressure  
Sea Level Pressure 29.85 in    
Wind  
Wind Speed 4 mph (WSW)    
Max Wind Speed 15 mph    
Max Gust Speed 21 mph    
Visibility 10 miles    
Events      
T = Trace of Precipitation, MM = Missing Value Source: NWS Daily Summary

Daily Weather History Graph

Daily Weather History Graph

Search for Another Location

Airport or City:

Trip Planner

Search our weather history database for the weather conditions in past years. The results will help you decide how hot, cold, wet, or windy it might be!

Date:

Astronomy

Dec. 18, 2013 Rise Set
Actual Time 7:17 AM MST 4:37 PM MST
Civil Twilight 6:47 AM MST 5:08 PM MST
Nautical Twilight 6:13 AM MST 5:42 PM MST
Astronomical Twilight 5:40 AM MST 6:15 PM MST
Moon 6:11 PM MST (12/18) 7:59 AM MST (12/18)
Length of Visible Light 10h 20m
Length of Day
9h 19m
Full, 98% of the Moon is Illuminated
Dec 18
Full
Dec 25
Last Quarter
Jan 1
New
Jan 7
First Quarter
Jan 15
Full

Hourly Weather History & Observations

Time (MST) Temp. Windchill Dew Point Humidity Pressure Visibility Wind Dir Wind Speed Gust Speed Precip Events Conditions
12:15 AM 53.6 °F - 12.2 °F 19% 30.04 in 10.0 mi Calm Calm - N/A   Clear
12:35 AM 51.8 °F - 14.0 °F 22% 30.03 in 10.0 mi Calm Calm - N/A   Clear
12:55 AM 53.6 °F - 12.2 °F 19% 30.01 in 10.0 mi SSW 4.6 mph - N/A   Clear
1:15 AM 51.8 °F - 14.0 °F 22% 30.01 in 10.0 mi Calm Calm - N/A   Clear
1:35 AM 51.8 °F - 14.0 °F 22% 30.00 in 10.0 mi West 5.8 mph - N/A   Clear
1:55 AM 51.8 °F - 14.0 °F 22% 30.00 in 10.0 mi WNW 4.6 mph - N/A   Clear
2:15 AM 50.0 °F - 14.0 °F 24% 30.00 in 10.0 mi Calm Calm - N/A   Clear
2:35 AM 48.2 °F - 15.8 °F 27% 29.99 in 10.0 mi North 5.8 mph - N/A   Clear
2:55 AM 51.8 °F - 12.2 °F 21% 29.98 in 10.0 mi Calm Calm - N/A   Clear
3:15 AM 51.8 °F - 14.0 °F 22% 29.98 in 10.0 mi North 3.5 mph - N/A   Clear
3:35 AM 51.8 °F - 14.0 °F 22% 29.97 in 10.0 mi NNW 3.5 mph - N/A   Clear
3:55 AM 50.0 °F - 14.0 °F 24% 29.97 in 10.0 mi Calm Calm - N/A   Clear
4:15 AM 46.4 °F 43.5 °F 14.0 °F 27% 29.96 in 10.0 mi SW 5.8 mph - N/A   Clear
4:35 AM 50.0 °F - 12.2 °F 22% 29.95 in 10.0 mi Calm Calm - N/A   Clear
4:55 AM 50.0 °F - 14.0 °F 24% 29.94 in 10.0 mi West 5.8 mph - N/A   Clear
5:15 AM 50.0 °F - 14.0 °F 24% 29.94 in 10.0 mi West 9.2 mph - N/A   Clear
5:35 AM 48.2 °F - 12.2 °F 24% 29.93 in 10.0 mi West 6.9 mph - N/A   Clear
5:55 AM 50.0 °F - 12.2 °F 22% 29.93 in 10.0 mi WSW 8.1 mph - N/A   Clear
6:15 AM 51.8 °F - 12.2 °F 21% 29.93 in 10.0 mi West 5.8 mph - N/A   Clear
6:35 AM 51.8 °F - 10.4 °F 19% 29.91 in 10.0 mi WSW 6.9 mph - N/A   Clear
6:55 AM 51.8 °F - 10.4 °F 19% 29.92 in 10.0 mi WNW 13.8 mph - N/A   Clear
7:15 AM 53.6 °F - 10.4 °F 18% 29.92 in 10.0 mi West 13.8 mph - N/A   Clear
7:35 AM 51.8 °F - 10.4 °F 19% 29.91 in 10.0 mi West 9.2 mph - N/A   Clear
7:55 AM 53.6 °F - 10.4 °F 18% 29.91 in 10.0 mi West 10.4 mph - N/A   Clear
8:15 AM 53.6 °F - 12.2 °F 19% 29.91 in 10.0 mi West 5.8 mph - N/A   Clear
8:35 AM 55.4 °F - 10.4 °F 17% 29.91 in 10.0 mi WNW 3.5 mph - N/A   Clear
8:55 AM 53.6 °F - 14.0 °F 21% 29.92 in 10.0 mi SSW 3.5 mph - N/A   Clear
9:15 AM 53.6 °F - 17.6 °F 24% 29.90 in 10.0 mi South 9.2 mph - N/A   Clear
9:35 AM 57.2 °F - 14.0 °F 18% 29.91 in 10.0 mi South 6.9 mph - N/A   Clear
9:55 AM 59.0 °F - 14.0 °F 17% 29.90 in 10.0 mi SSW 3.5 mph - N/A   Clear
10:15 AM 62.6 °F - 14.0 °F 15% 29.90 in 10.0 mi West 5.8 mph - N/A   Clear
10:35 AM 62.6 °F - 15.8 °F 16% 29.89 in 10.0 mi North 4.6 mph - N/A   Clear
10:55 AM 62.6 °F - 14.0 °F 15% 29.88 in 10.0 mi WNW 5.8 mph - N/A   Clear
11:15 AM 64.4 °F - 14.0 °F 14% 29.86 in 10.0 mi WNW 5.8 mph - N/A   Clear
11:35 AM 64.4 °F - 14.0 °F 14% 29.85 in 10.0 mi NNW 4.6 mph - N/A   Clear
11:55 AM 64.4 °F - 14.0 °F 14% 29.84 in 10.0 mi NW 5.8 mph - N/A   Clear
12:15 PM 66.2 °F - 14.0 °F 13% 29.82 in 10.0 mi SSE 4.6 mph - N/A   Clear
12:35 PM 66.2 °F - 14.0 °F 13% 29.82 in 10.0 mi WSW 8.1 mph - N/A   Clear
12:55 PM 66.2 °F - 14.0 °F 13% 29.80 in 10.0 mi North 5.8 mph - N/A   Clear
1:15 PM 68.0 °F - 14.0 °F 12% 29.79 in 10.0 mi NE 3.5 mph - N/A   Clear
1:35 PM 68.0 °F - 14.0 °F 12% 29.77 in 10.0 mi SE 5.8 mph - N/A   Clear
1:55 PM 68.0 °F - 14.0 °F 12% 29.76 in 10.0 mi SE 4.6 mph - N/A   Clear
2:15 PM 69.8 °F - 14.0 °F 12% 29.76 in 10.0 mi Calm Calm - N/A   Clear
2:35 PM 68.0 °F - 14.0 °F 12% 29.76 in 10.0 mi NE 6.9 mph - N/A   Clear
2:55 PM 68.0 °F - 14.0 °F 12% 29.76 in 10.0 mi NNE 5.8 mph - N/A   Clear
3:15 PM 68.0 °F - 14.0 °F 12% 29.76 in 10.0 mi ENE 6.9 mph - N/A   Clear
3:35 PM 64.4 °F - 19.4 °F 18% 29.77 in 10.0 mi East 4.6 mph - N/A   Clear
3:55 PM 64.4 °F - 14.0 °F 14% 29.77 in 10.0 mi Calm Calm - N/A   Clear
4:15 PM 60.8 °F - 15.8 °F 17% 29.77 in 10.0 mi ENE 3.5 mph - N/A   Clear
4:35 PM 59.0 °F - 19.4 °F 22% 29.77 in 10.0 mi Calm Calm - N/A   Clear
4:55 PM 57.2 °F - 15.8 °F 20% 29.77 in 10.0 mi Calm Calm - N/A   Clear
5:15 PM 55.4 °F - 21.2 °F 26% 29.78 in 10.0 mi ESE 4.6 mph - N/A   Clear
5:35 PM 55.4 °F - 19.4 °F 25% 29.78 in 10.0 mi Calm Calm - N/A   Clear
5:55 PM 53.6 °F - 17.6 °F 24% 29.78 in 10.0 mi Calm Calm - N/A   Clear
6:15 PM 55.4 °F - 14.0 °F 20% 29.78 in 10.0 mi Calm Calm - N/A   Clear
6:35 PM 53.6 °F - 12.2 °F 19% 29.79 in 10.0 mi Calm Calm - N/A   Clear
6:55 PM 53.6 °F - 14.0 °F 21% 29.79 in 10.0 mi SSW 5.8 mph 9.2 mph N/A   Clear
7:15 PM 50.0 °F - 14.0 °F 24% 29.78 in 10.0 mi SSW 4.6 mph - N/A   Clear
7:35 PM 48.2 °F - 14.0 °F 25% 29.78 in 10.0 mi SW 5.8 mph - N/A   Clear
7:55 PM 48.2 °F - 12.2 °F 24% 29.78 in 10.0 mi South 4.6 mph - N/A   Clear
8:15 PM 51.8 °F - 12.2 °F 21% 29.77 in 10.0 mi SW 9.2 mph - N/A   Clear
8:35 PM 51.8 °F - 12.2 °F 21% 29.77 in 10.0 mi SW 6.9 mph - N/A   Clear
8:55 PM 50.0 °F - 12.2 °F 22% 29.77 in 10.0 mi WSW 8.1 mph - N/A   Clear
9:15 PM 50.0 °F - 14.0 °F 24% 29.76 in 10.0 mi West 6.9 mph - N/A   Clear
9:35 PM 51.8 °F - 12.2 °F 21% 29.76 in 10.0 mi WSW 8.1 mph - N/A   Clear
9:55 PM 53.6 °F - 12.2 °F 19% 29.75 in 10.0 mi SW 15.0 mph 20.7 mph N/A   Clear
10:15 PM 53.6 °F - 12.2 °F 19% 29.75 in 10.0 mi SW 11.5 mph 16.1 mph N/A   Clear
10:35 PM 51.8 °F - 14.0 °F 22% 29.76 in 10.0 mi WSW 8.1 mph - N/A   Clear
10:55 PM 51.8 °F - 15.8 °F 24% 29.74 in 10.0 mi West 11.5 mph - N/A   Clear
11:15 PM 50.0 °F - 17.6 °F 28% 29.74 in 10.0 mi West 10.4 mph - N/A   Clear
11:35 PM 51.8 °F - 15.8 °F 24% 29.72 in 10.0 mi WSW 9.2 mph - N/A   Clear
11:55 PM 51.8 °F - 15.8 °F 24% 29.72 in 10.0 mi WSW 9.2 mph - N/A   Clear